Simultaneous Nadir Overpasses (SNOs) Predictions

Prediction of SNOs between AQUA and NOAA-19 Satellite Orbit:

Table of predicted SNOs for the next 14.0 days since TLE Epoch: 3/7/2015
Index Date (AQUA) Time (AQUA) Lat,Lon (AQUA) SZA (AQUA ) Date (NOAA-19) Time (NOAA-19) Lat,Lon (NOAA-19) SZA (NOAA-19 ) Distance(km) Time Diff (sec)
1 03/07/2015 06:42:11 79.59, 51.99 86.33 03/07/2015 06:42:01 79.60, 51.85 86.35 3.09 10
2 03/09/2015 11:26:32 79.69, -19.82 85.61 03/09/2015 11:25:33 79.70, -19.95 85.66 2.86 59
3 03/09/2015 12:15:53 -79.50, 149.17 94.69 03/09/2015 12:16:27 -79.51, 149.14 94.69 0.70 34
4 03/11/2015 17:00:14 -79.62, 77.24 95.38 03/11/2015 17:00:00 -79.63, 77.21 95.37 0.63 14
5 03/13/2015 21:44:33 -79.69, 5.70 96.15 03/13/2015 21:43:31 -79.69, 5.78 96.14 1.77 62
6 03/13/2015 22:33:56 79.54, 174.39 83.62 03/13/2015 22:34:27 79.54, 174.48 83.59 2.02 31
7 03/16/2015 03:18:15 79.63, 102.68 82.87 03/16/2015 03:17:58 79.62, 102.82 82.86 3.05 17
8 03/18/2015 08:02:34 79.74, 30.82 82.16 03/18/2015 08:01:30 79.74, 30.82 82.19 0.09 64
9 03/18/2015 08:51:56 -79.59,-160.40 98.10 03/18/2015 08:52:28 -79.59,-160.50 98.09 2.28 32
10 03/20/2015 13:36:14 -79.68, 127.88 98.84 03/20/2015 13:35:59 -79.67, 127.91 98.84 0.87 15




NCC Satellite Simultaneous Nadir Overpasses (SNOs) Prediction Service
